Sparta, IL

1:49 PM CST on November 13, 2019 (GMT -0600)
Sparta Community-Hunter

Weather History for KSAR - October, 2019

Change the Weather History Date:

Monday, October 21, 2019

  Actual Average (KBLV) Record (KBLV)
Temperature  
Mean Temperature 62 °F -  
Max Temperature 70 °F 68 °F 86 °F (1953)
Min Temperature 54 °F 40 °F 25 °F (1952)
Degree Days  
Heating Degree Days 3    
Growing Degree Days 12 (Base 50)    
Moisture  
Dew Point 53 °F    
Average Humidity 75    
Maximum Humidity 100    
Minimum Humidity 39    
Precipitation  
Precipitation 0.26 in - - ()
Sea Level Pressure  
Sea Level Pressure 29.65 in    
Wind  
Wind Speed 10 mph ()    
Max Wind Speed 21 mph    
Max Gust Speed 28 mph    
Visibility 9.8 miles    
Events Rain , Thunderstorm    
Averages and records for this station are not official NWS values.
T = Trace of Precipitation, MM = Missing Value Source: Averaged Metar Reports

Daily Weather History Graph

Daily Weather History Graph

Search for Another Location

Airport or City:

Astronomy

Oct. 21, 2019 Rise Set
Actual Time 7:13 AM CDT 6:13 PM CDT
Civil Twilight 6:46 AM CDT 6:39 PM CDT
Nautical Twilight 6:15 AM CDT 7:10 PM CDT
Astronomical Twilight 5:45 AM CDT 7:41 PM CDT
Moon No Moon Rise 2:28 PM CDT (10/21)
Length of Visible Light 11h 53m
Length of Day
10h 59m
Waning Gibbous, 48% of the Moon is Illuminated
Oct 21
Waning Gibbous
Oct 27
New
Nov 4
First Quarter
Nov 12
Full
Nov 19
Last Quarter

Hourly Weather History & Observations

Time (CDT) Temp. Dew Point Humidity Pressure Visibility Wind Dir Wind Speed Gust Speed Precip Events Conditions
12:15 AM 59.4 °F 54.3 °F 83% 29.75 in 10.0 mi SE 6.9 mph - N/A   Clear
12:35 AM 59.2 °F 54.5 °F 84% 29.74 in 10.0 mi ESE 9.2 mph - N/A   Clear
12:55 AM 58.5 °F 54.5 °F 87% 29.73 in 10.0 mi ESE 8.1 mph - N/A   Clear
1:15 AM 58.8 °F 54.9 °F 87% 29.73 in 10.0 mi SE 8.1 mph - N/A   Clear
1:35 AM 59.4 °F 55.6 °F 87% 29.71 in 10.0 mi ESE 10.4 mph - N/A   Clear
1:55 AM 60.1 °F 56.3 °F 87% 29.70 in 10.0 mi SE 9.2 mph - N/A   Clear
2:35 AM 59.9 °F 56.7 °F 89% 29.66 in 10.0 mi SE 10.4 mph - N/A   Scattered Clouds
2:55 AM 61.0 °F 57.4 °F 88% 29.63 in 10.0 mi SE 11.5 mph 17.3 mph N/A   Mostly Cloudy
3:15 AM 61.0 °F 57.7 °F 89% 29.64 in 10.0 mi SE 9.2 mph 16.1 mph N/A   Mostly Cloudy
3:35 AM 61.2 °F 58.1 °F 90% 29.61 in 10.0 mi SE 11.5 mph - N/A Thunderstorm Scattered Clouds
3:55 AM 61.0 °F 58.8 °F 93% 29.60 in 10.0 mi SE 11.5 mph - N/A Thunderstorm Unknown
4:15 AM 61.3 °F 59.9 °F 95% 29.59 in 10.0 mi ESE 9.2 mph - 0.02 in Rain , Thunderstorm Light Thunderstorms and Rain
4:35 AM 61.0 °F 60.3 °F 97% 29.58 in 10.0 mi SE 6.9 mph - 0.02 in Thunderstorm Overcast
4:55 AM 62.1 °F 61.7 °F 99% 29.60 in 3.0 mi SSE 11.5 mph 23.0 mph 0.14 in Rain , Thunderstorm Thunderstorms and Rain
5:15 AM 62.6 °F 62.6 °F 100% 29.61 in 7.0 mi SSE 15.0 mph 20.7 mph 0.06 in Rain Rain
5:35 AM 63.0 °F 62.4 °F 98% 29.59 in 10.0 mi South 11.5 mph 16.1 mph 0.08 in Rain Light Rain
5:55 AM 62.8 °F 62.2 °F 98% 29.58 in 10.0 mi South 11.5 mph - 0.08 in   Drizzle
6:15 AM 62.2 °F 62.1 °F 99% 29.55 in 10.0 mi SSE 10.4 mph - 0.01 in Rain Light Rain
6:35 AM 62.1 °F 61.9 °F 99% 29.57 in 10.0 mi SSE 10.4 mph - 0.02 in   Light Drizzle
6:55 AM 62.1 °F 61.7 °F 99% 29.60 in 10.0 mi SSE 13.8 mph 18.4 mph 0.02 in Rain Light Rain
7:15 AM 61.7 °F 61.3 °F 99% 29.59 in 10.0 mi South 13.8 mph 20.7 mph N/A   Drizzle
7:35 AM 61.7 °F 60.8 °F 97% 29.58 in 10.0 mi SSE 17.3 mph 21.9 mph 0.01 in Rain Light Rain
7:55 AM 61.2 °F 59.9 °F 96% 29.53 in 10.0 mi SE 13.8 mph 26.5 mph 0.02 in Rain Rain
8:15 AM 60.8 °F 59.5 °F 96% 29.55 in 10.0 mi SSW 11.5 mph 20.7 mph N/A   Scattered Clouds
8:35 AM 60.8 °F 59.9 °F 97% 29.56 in 10.0 mi SSW 9.2 mph - N/A   Scattered Clouds
8:55 AM 60.8 °F 59.9 °F 97% 29.57 in 10.0 mi SSW 12.7 mph 18.4 mph N/A   Scattered Clouds
9:15 AM 61.0 °F 59.9 °F 96% 29.57 in 10.0 mi SSW 11.5 mph 17.3 mph N/A   Clear
9:35 AM 61.3 °F 60.1 °F 96% 29.58 in 10.0 mi South 15.0 mph - N/A   Clear
9:55 AM 61.9 °F 60.1 °F 94% 29.59 in 10.0 mi South 15.0 mph 21.9 mph N/A   Clear
10:15 AM 62.2 °F 60.1 °F 93% 29.60 in 10.0 mi SSW 15.0 mph 21.9 mph N/A   Scattered Clouds
10:35 AM 62.6 °F 60.1 °F 91% 29.60 in 10.0 mi SSW 11.5 mph 18.4 mph N/A   Overcast
10:55 AM 62.6 °F 59.9 °F 91% 29.60 in 10.0 mi SSW 11.5 mph 18.4 mph N/A   Overcast
11:15 AM 62.6 °F 59.9 °F 91% 29.60 in 10.0 mi SSW 10.4 mph 18.4 mph N/A   Overcast
11:35 AM 62.2 °F 59.9 °F 92% 29.61 in 10.0 mi SW 10.4 mph 18.4 mph N/A   Overcast
11:55 AM 61.7 °F 60.3 °F 95% 29.62 in 5.0 mi SW 9.2 mph 16.1 mph N/A Rain Heavy Rain
12:15 PM 61.9 °F 60.8 °F 96% 29.62 in 10.0 mi SSW 12.7 mph 18.4 mph N/A   Mostly Cloudy
12:35 PM 64.2 °F 61.3 °F 90% 29.63 in 10.0 mi SSW 15.0 mph 20.7 mph N/A   Scattered Clouds
12:55 PM 66.0 °F 61.0 °F 84% 29.62 in 10.0 mi SSW 12.7 mph 21.9 mph N/A   Scattered Clouds
1:15 PM 67.3 °F 57.7 °F 71% 29.61 in 10.0 mi SSW 16.1 mph 27.6 mph N/A   Scattered Clouds
1:35 PM 67.5 °F 55.8 °F 66% 29.61 in 10.0 mi SW 17.3 mph 26.5 mph N/A   Scattered Clouds
1:55 PM 68.9 °F 55.8 °F 63% 29.61 in 10.0 mi SW 15.0 mph 25.3 mph N/A   Overcast
2:15 PM 69.3 °F 55.2 °F 61% 29.60 in 10.0 mi SSW 11.5 mph 23.0 mph N/A   Mostly Cloudy
2:35 PM 70.2 °F 52.9 °F 54% 29.60 in 10.0 mi SW 18.4 mph 27.6 mph N/A   Scattered Clouds
2:55 PM 70.3 °F 51.4 °F 51% 29.59 in 10.0 mi SW 20.7 mph 26.5 mph N/A   Clear
3:15 PM 70.7 °F 52.2 °F 52% 29.60 in 10.0 mi SW 13.8 mph 25.3 mph N/A   Clear
3:35 PM 70.7 °F 49.5 °F 47% 29.60 in 10.0 mi SSW 17.3 mph 23.0 mph N/A   Clear
3:55 PM 70.0 °F 43.7 °F 39% 29.61 in 10.0 mi SW 15.0 mph 25.3 mph N/A   Clear
4:15 PM 69.3 °F 43.3 °F 39% 29.62 in 10.0 mi SW 17.3 mph 24.2 mph N/A   Clear
4:35 PM 68.9 °F 43.7 °F 40% 29.63 in 10.0 mi SW 13.8 mph 23.0 mph N/A   Clear
4:55 PM 68.2 °F 43.3 °F 41% 29.64 in 10.0 mi SSW 13.8 mph 19.6 mph N/A   Clear
5:15 PM 67.5 °F 42.8 °F 41% 29.64 in 10.0 mi SW 15.0 mph 24.2 mph N/A   Clear
5:35 PM 66.7 °F 43.0 °F 42% 29.65 in 10.0 mi SW 13.8 mph 18.4 mph N/A   Clear
5:55 PM 65.8 °F 43.0 °F 43% 29.67 in 10.0 mi SW 11.5 mph 18.4 mph N/A   Clear
6:15 PM 64.0 °F 43.2 °F 47% 29.68 in 10.0 mi SW 10.4 mph - N/A   Clear
6:35 PM 62.8 °F 43.5 °F 49% 29.69 in 10.0 mi SW 8.1 mph - N/A   Clear
6:55 PM 62.4 °F 43.0 °F 49% 29.71 in 10.0 mi WSW 10.4 mph 16.1 mph N/A   Clear
7:15 PM 61.2 °F 43.0 °F 51% 29.72 in 10.0 mi WSW 5.8 mph - N/A   Clear
7:35 PM 60.8 °F 42.8 °F 52% 29.73 in 10.0 mi WSW 6.9 mph - N/A   Clear
7:55 PM 59.4 °F 43.2 °F 55% 29.75 in 10.0 mi West 8.1 mph - N/A   Clear
8:15 PM 58.8 °F 43.0 °F 56% 29.76 in 10.0 mi West 9.2 mph - N/A   Clear
8:35 PM 57.6 °F 43.2 °F 59% 29.76 in 10.0 mi West 5.8 mph - N/A   Clear
8:55 PM 57.0 °F 42.8 °F 59% 29.76 in 10.0 mi SW 6.9 mph - N/A   Clear
9:15 PM 56.7 °F 42.4 °F 59% 29.76 in 10.0 mi SW 8.1 mph - N/A   Clear
9:35 PM 56.8 °F 41.9 °F 57% 29.77 in 10.0 mi SSW 6.9 mph - N/A   Clear
9:55 PM 56.3 °F 41.9 °F 59% 29.77 in 10.0 mi SSW 9.2 mph - N/A   Clear
10:15 PM 56.5 °F 41.2 °F 57% 29.78 in 10.0 mi SSW 10.4 mph - N/A   Clear
10:35 PM 55.9 °F 41.2 °F 58% 29.79 in 10.0 mi SSW 9.2 mph - N/A   Clear
10:55 PM 55.4 °F 41.4 °F 59% 29.80 in 10.0 mi SSW 6.9 mph - N/A   Clear
11:15 PM 54.5 °F 41.5 °F 62% 29.80 in 10.0 mi SSW 5.8 mph - N/A   Clear
11:35 PM 54.0 °F 41.5 °F 63% 29.81 in 10.0 mi SSW 9.2 mph - N/A   Clear
11:55 PM 54.0 °F 41.4 °F 62% 29.80 in 10.0 mi SSW 6.9 mph - N/A   Clear